Weather History for KIRK - November, 2012

Change the Weather History Date:

Monday, November 12, 2012

  Actual Average Record
Temperature  
Mean Temperature 31 °F 42 °F  
Max Temperature 40 °F 52 °F 73 °F (1971)
Min Temperature 22 °F 33 °F 8 °F (1986)
Degree Days  
Heating Degree Days 34 23  
Month to date heating degree days 246 242  
Since 1 July heating degree days 825 731  
Cooling Degree Days 0 0  
Month to date cooling degree days 2 0  
Year to date cooling degree days 1321 939  
Moisture  
Dew Point 19 °F    
Average Humidity 64    
Maximum Humidity 84    
Minimum Humidity 44    
Precipitation  
Precipitation 0.00 in 0.10 in 1.08 in (1922)
Month to date precipitation 1.68 1.34  
Year to date precipitation 26.37 36.18  
Sea Level Pressure  
Sea Level Pressure 30.33 in    
Wind  
Wind Speed 9 mph (West)    
Max Wind Speed 25 mph    
Max Gust Speed 35 mph    
Visibility 10 miles    
Events      
T = Trace of Precipitation, MM = Missing Value Source: NWS Daily Summary

Daily Weather History Graph

Daily Weather History Graph

Search for Another Location

Airport or City:

Trip Planner

Search our weather history database for the weather conditions in past years. The results will help you decide how hot, cold, wet, or windy it might be!

Date:

Astronomy

Nov. 12, 2012 Rise Set
Actual Time 6:52 AM CST 4:55 PM CST
Civil Twilight 6:23 AM CST 5:24 PM CST
Nautical Twilight 5:51 AM CST 5:57 PM CST
Astronomical Twilight 5:19 AM CST 6:29 PM CST
Moon 5:18 AM CST (11/12) 4:01 PM CST (11/12)
Length of Visible Light 11h 00m
Length of Day
10h 02m
Waning Crescent, 2% of the Moon is Illuminated
Nov 12
Waning Crescent
Nov 13
New
Nov 20
First Quarter
Nov 28
Full
Dec 6
Last Quarter

Hourly Weather History & Observations

Time (CST) Temp. Windchill Dew Point Humidity Pressure Visibility Wind Dir Wind Speed Gust Speed Precip Events Conditions
12:55 AM 25.0 °F 17.1 °F 18.0 °F 75% 30.20 in 10.0 mi WNW 6.9 mph - N/A   Clear
1:55 AM 24.1 °F 16.0 °F 17.1 °F 75% 30.23 in 10.0 mi West 6.9 mph - N/A   Clear
2:55 AM 23.0 °F 15.8 °F 17.1 °F 78% 30.25 in 10.0 mi West 5.8 mph - N/A   Clear
3:55 AM 23.0 °F 15.8 °F 17.1 °F 78% 30.25 in 10.0 mi West 5.8 mph - N/A   Clear
4:55 AM 23.0 °F 15.8 °F 17.1 °F 78% 30.27 in 10.0 mi WSW 5.8 mph - N/A   Clear
5:55 AM 23.0 °F 15.8 °F 17.1 °F 78% 30.28 in 10.0 mi WSW 5.8 mph - N/A   Clear
6:55 AM 21.9 °F 13.4 °F 17.1 °F 82% 30.30 in 10.0 mi WSW 6.9 mph - N/A   Clear
7:55 AM 25.0 °F 16.3 °F 18.0 °F 75% 30.32 in 10.0 mi WSW 8.1 mph - N/A   Clear
8:55 AM 28.0 °F 18.1 °F 18.0 °F 66% 30.32 in 10.0 mi West 11.5 mph - N/A   Clear
9:55 AM 32.0 °F 22.5 °F 19.0 °F 59% 30.33 in 10.0 mi West 12.7 mph 21.9 mph N/A   Clear
10:55 AM 35.1 °F 25.9 °F 19.9 °F 54% 30.32 in 10.0 mi West 13.8 mph 23.0 mph N/A   Clear
11:55 AM 37.0 °F 27.7 °F 19.9 °F 50% 30.31 in 10.0 mi West 16.1 mph 25.3 mph N/A   Clear
12:55 PM 37.9 °F 28.5 °F 19.9 °F 48% 30.30 in 10.0 mi West 17.3 mph 26.5 mph N/A   Clear
1:55 PM 39.0 °F 29.3 °F 19.9 °F 46% 30.30 in 10.0 mi West 19.6 mph 26.5 mph N/A   Clear
2:55 PM 39.9 °F 31.8 °F 21.0 °F 47% 30.31 in 10.0 mi WNW 15.0 mph 25.3 mph N/A   Clear
3:55 PM 39.0 °F 30.6 °F 21.0 °F 49% 30.35 in 10.0 mi WNW 15.0 mph 23.0 mph N/A   Clear
4:55 PM 36.0 °F 29.6 °F 21.0 °F 55% 30.35 in 10.0 mi West 8.1 mph 17.3 mph N/A   Clear
5:55 PM 35.6 °F 30.7 °F 21.2 °F 56% 30.34 in 10.0 mi WSW 5.8 mph - N/A   Clear
6:55 PM 33.1 °F 28.7 °F 21.0 °F 61% 30.40 in 10.0 mi WSW 4.6 mph - N/A   Clear
7:55 PM 32.0 °F 28.7 °F 21.0 °F 64% 30.41 in 10.0 mi WSW 3.5 mph - N/A   Clear
8:55 PM 30.0 °F 24.1 °F 21.0 °F 69% 30.43 in 10.0 mi West 5.8 mph - N/A   Clear
9:55 PM 30.0 °F - 19.9 °F 66% 30.45 in 10.0 mi Calm Calm - N/A   Clear
10:55 PM 28.0 °F 24.2 °F 19.9 °F 72% 30.45 in 10.0 mi West 3.5 mph - N/A   Clear
11:55 PM 24.1 °F 19.7 °F 19.0 °F 81% 30.46 in 10.0 mi SW 3.5 mph - N/A   Clear